Location: Colebrook
(42.0017°N, 73.0973°W)
Time: 01:31:40
(UTC-05:00)

Amateur Radio Satellites - All Passes

Search period start: 19 December 2014 01:01
Search period end: 20 December 2014 01:01
Location: Colebrook, 42.0017°N, 73.0973°W

Satellite Date Start Highest point End Downlink Frequencies (MHz)
Time Altitude Azimuth
Oscar 19 19 Dec 01:05:18 01:10:19 47° 99° (E) 01:15:18 437.125/150
ITAMSAT 1 19 Dec 01:17:16 01:21:17 22° 94° (E) 01:25:16 435.822/435.867
AUBIESAT-1 19 Dec 01:21:58 01:26:32 44° 257° (WSW) 01:31:14 437.475
YUBILEINY 19 Dec 01:35:08 01:42:27 29° 293° (WNW) 01:49:47 435.215
M-CUBED/EXP-1 PRIME 19 Dec 01:47:02 01:50:54 24° 262° (W) 01:54:52 437.505
HORYU 2 19 Dec 02:19:59 02:23:17 20° 93° (E) 02:26:34 437.375
O/OREOS (USA 219) 19 Dec 02:24:52 02:27:23 15° 308° (NW) 02:29:55 437.305
STARS 19 Dec 02:35:50 02:39:46 33° 263° (W) 02:43:44 437.465
KKS-1 19 Dec 02:35:53 02:39:24 23° 265° (W) 02:42:56 437.445
Gurwin Techsat 1B 19 Dec 02:39:33 02:44:54 81° 104° (ESE) 02:50:12 435.225
Oscar 19 19 Dec 02:45:20 02:49:20 23° 296° (WNW) 02:53:21 437.125/150
VERMONT LUNAR 19 Dec 02:52:50 02:55:02 16° 150° (SSE) 02:57:14 437.305
ITAMSAT 1 19 Dec 02:56:03 03:00:58 45° 290° (WNW) 03:05:51 435.822/435.867
PHONESAT 2.4 19 Dec 02:58:20 02:59:48 12° 147° (SSE) 03:01:16 2401.200-2431.200
MOZHAYETS 4 19 Dec 03:30:25 03:34:47 43° 71° (ENE) 03:39:11
GONETS M04 19 Dec 03:40:27 03:44:26 14° 74° (ENE) 03:48:23
AIST 1 19 Dec 03:45:06 03:49:23 75° 264° (W) 03:53:37
HORYU 2 19 Dec 03:55:52 04:00:06 40° 290° (WNW) 04:04:19 437.375
AO-7 19 Dec 03:56:36 04:04:52 58° 103° (ESE) 04:13:03 29.400- 29.500
STRAND 1 19 Dec 04:17:34 04:19:13 12° 58° (ENE) 04:20:52 437.568
Gurwin Techsat 1B 19 Dec 04:21:23 04:24:09 15° 301° (WNW) 04:26:55 435.225
VERMONT LUNAR 19 Dec 04:29:28 04:32:53 48° 165° (SSE) 04:36:18 437.305
SO-50 19 Dec 04:33:22 04:36:50 19° 40° (NE) 04:40:18 436.795
PHONESAT 2.4 19 Dec 04:34:30 04:37:55 40° 162° (SSE) 04:41:21 2401.200-2431.200
JAS-2 19 Dec 04:35:47 04:41:13 43° 97° (E) 04:46:12 435.910
CUBESAT XI-V 19 Dec 04:49:10 04:52:46 22° 66° (ENE) 04:56:22 437.345
PRISM 19 Dec 04:55:21 04:59:28 53° 73° (ENE) 05:03:36 437.425
MOZHAYETS 4 19 Dec 05:08:49 05:12:11 20° 268° (W) 05:15:34
GONETS M04 19 Dec 05:30:48 05:39:36 75° 94° (E) 05:48:25
Cubesat XI-IV 19 Dec 05:37:07 05:41:55 34° 97° (E) 05:46:42 437.490
AO-7 19 Dec 05:49:58 05:57:14 35° 302° (WNW) 06:04:30 29.400- 29.500
STRAND 1 19 Dec 05:52:28 05:57:35 85° 75° (ENE) 06:02:44 437.568
VERMONT LUNAR 19 Dec 06:07:34 06:11:05 70° 182° (S) 06:14:37 437.305
CUTE-I 19 Dec 06:10:35 06:15:54 68° 102° (ESE) 06:21:11 437.470
PHONESAT 2.4 19 Dec 06:12:49 06:16:26 71° 179° (S) 06:20:03 2401.200-2431.200
SO-50 19 Dec 06:13:02 06:17:56 76° 239° (WSW) 06:22:50 436.795
JAS-2 19 Dec 06:21:25 06:26:02 25° 298° (WNW) 06:30:20 435.910
CUBESAT XI-V 19 Dec 06:25:35 06:29:58 39° 262° (W) 06:34:21 437.345
PRISM 19 Dec 06:33:13 06:35:18 13° 269° (W) 06:37:24 437.425
Cubesat XI-IV 19 Dec 07:17:17 07:21:56 32° 294° (WNW) 07:26:34 437.490
HO-68 19 Dec 07:23:08 07:27:14 16° 89° (E) 07:31:19 435.675
GONETS M04 19 Dec 07:30:23 07:37:18 25° 295° (WNW) 07:44:17
STRAND 1 19 Dec 07:35:56 07:37:24 11° 271° (W) 07:38:52 437.568
VERMONT LUNAR 19 Dec 07:45:55 07:49:14 38° 199° (SSW) 07:52:32 437.305
COMPASS 1 19 Dec 07:48:20 07:48:57 10° 89° (E) 07:49:33 437.405
SEEDS 19 Dec 07:50:08 07:52:18 14° 90° (E) 07:54:28 437.485
CUTE 1.7 + AOD 2 19 Dec 07:50:50 07:53:35 16° 92° (E) 07:56:18 437.475
PHONESAT 2.4 19 Dec 07:51:29 07:54:59 47° 196° (SSW) 07:58:30 2401.200-2431.200
CUTE-I 19 Dec 07:52:03 07:55:24 17° 300° (WNW) 07:58:45 437.470
DOVE 4 19 Dec 07:57:56 08:00:13 13° 91° (E) 08:02:33 437.250
MaSat-1 19 Dec 08:10:44 08:11:41 12° 109° (ESE) 08:12:38 437.345
Oscar 11 19 Dec 08:22:33 08:23:57 11° 89° (E) 08:25:21 145.826/435.025
BRITE-PL 19 Dec 08:25:46 08:30:16 46° 99° (E) 08:35:05 437.365/2234.400
CINEMA 3 19 Dec 08:34:45 08:38:08 19° 93° (E) 08:41:35 145.822/145.860
ANTELSAT 19 Dec 08:41:23 08:44:33 20° 65° (ENE) 08:47:46 437.575/2403.000
QB50P2 19 Dec 08:43:46 08:45:48 13° 63° (ENE) 08:47:50 145.880/145.840
AAUSAT CUBESAT 2 19 Dec 08:46:50 08:50:53 42° 98° (E) 08:54:54 437.432
ZACube-1 19 Dec 08:48:52 08:49:57 11° 89° (E) 08:51:01 437.345
POLYITAN 1 19 Dec 08:51:23 08:53:57 16° 64° (ENE) 08:56:32 437.675
CANX-2 19 Dec 08:54:21 08:58:43 90° 286° (WNW) 09:03:01 2200.000
NANOSAT C BR1 19 Dec 08:54:54 08:57:38 17° 65° (ENE) 09:00:23 145.865
DANDE 19 Dec 08:56:34 08:59:07 19° 84° (E) 09:02:10 436.750
GOMX 1 19 Dec 09:00:40 09:05:23 76° 102° (ESE) 09:10:26 467.674
QB50P1 19 Dec 09:08:17 09:11:38 24° 67° (ENE) 09:15:00 145.935-145.965
HO-68 19 Dec 09:08:38 09:15:50 90° 287° (WNW) 09:22:58 435.675
UWE-3 19 Dec 09:10:29 09:14:08 23° 94° (E) 09:17:48 435.000/436.395/437.385
FUNcube-1 19 Dec 09:14:06 09:17:30 21° 93° (E) 09:20:55 145.935
O/OREOS (USA 219) 19 Dec 09:14:34 09:17:17 16° 53° (NE) 09:20:00 437.305
TIGRISAT 19 Dec 09:16:49 09:20:55 44° 71° (ENE) 09:25:08 435.000
COMPASS 1 19 Dec 09:20:52 09:25:08 69° 285° (WNW) 09:29:20 437.405
SEEDS 19 Dec 09:24:16 09:28:27 53° 287° (WNW) 09:32:37 437.485
CUTE 1.7 + AOD 2 19 Dec 09:25:36 09:29:44 44° 288° (WNW) 09:33:49 437.475
VERMONT LUNAR 19 Dec 09:25:59 09:26:58 11° 214° (SW) 09:27:56 437.305
AISAT 19 Dec 09:26:02 09:28:30 15° 91° (E) 09:30:58 437.250
DX 1 19 Dec 09:30:53 09:35:06 47° 100° (E) 09:39:17 434.975-435.025
PHONESAT 2.4 19 Dec 09:31:00 09:33:11 15° 211° (SSW) 09:35:23 2401.200-2431.200
DOVE 4 19 Dec 09:33:39 09:38:20 69° 285° (WNW) 09:43:18 437.250
POPSAT HIP 1 19 Dec 09:35:58 09:39:59 46° 72° (ENE) 09:44:02 437.405
MaSat-1 19 Dec 09:43:32 09:44:57 15° 303° (WNW) 09:46:20 437.345
UNISAT 6 19 Dec 09:44:49 09:49:10 90° 236° (SW) 09:53:40 437.425
YUBILEINY 19 Dec 09:46:29 09:54:03 32° 69° (ENE) 10:01:33 435.215
DELFI C3 19 Dec 09:47:06 09:51:16 86° 103° (ESE) 09:55:22 145.870
50 SAT 19 Dec 09:50:03 09:53:18 22° 94° (E) 09:56:33 437.505
CUSAT 1 19 Dec 09:54:14 09:57:41 61° 284° (WNW) 10:02:20 437.405
Oscar 11 19 Dec 09:56:13 10:00:33 66° 286° (WNW) 10:04:52 145.826/435.025
HUMSAT D 19 Dec 09:59:19 10:03:18 35° 97° (E) 10:07:18 437.325/437.525
UKube-1 19 Dec 10:03:40 10:08:00 77° 285° (WNW) 10:12:19 .
DUCHIFAT 1 19 Dec 10:04:37 10:08:49 83° 257° (WSW) 10:13:02 145.980
CUBEBUG 2 19 Dec 10:04:41 10:09:19 84° 284° (WNW) 10:14:03 437.445
BRITE-PL 19 Dec 10:05:11 10:08:31 20° 293° (WNW) 10:12:02 437.365/2234.400
CINEMA 3 19 Dec 10:11:01 10:15:31 47° 288° (WNW) 10:20:10 145.822/145.860
BUGSAT 1 19 Dec 10:11:24 10:15:30 86° 257° (WSW) 10:19:36 437.445
ESTCUBE 1 19 Dec 10:16:16 10:19:37 20° 93° (E) 10:22:57 437.505/2401.250
ANTELSAT 19 Dec 10:16:57 10:21:03 40° 262° (W) 10:25:16 437.575/2403.000
QB50P2 19 Dec 10:17:04 10:21:14 58° 259° (W) 10:25:25 145.880/145.840
VELOX 1 19 Dec 10:18:47 10:23:07 52° 100° (E) 10:27:25 145.980
ZACube-1 19 Dec 10:22:16 10:26:47 75° 285° (WNW) 10:31:21 437.345
AAUSAT CUBESAT 2 19 Dec 10:23:24 10:26:14 18° 295° (WNW) 10:29:03 437.432
POLYITAN 1 19 Dec 10:25:28 10:29:31 47° 261° (W) 10:33:37 437.675
NANOSAT C BR1 19 Dec 10:29:11 10:33:11 43° 261° (W) 10:37:13 145.865
DANDE 19 Dec 10:39:29 10:42:22 23° 294° (WNW) 10:45:58 436.750
GOMX 1 19 Dec 10:40:50 10:43:00 13° 297° (WNW) 10:45:13 467.674
QB50P1 19 Dec 10:43:41 10:47:23 30° 264° (W) 10:51:07 145.935-145.965
UWE-3 19 Dec 10:46:33 10:50:44 36° 290° (WNW) 10:54:59 435.000/436.395/437.385
FUNcube-1 19 Dec 10:49:46 10:53:57 39° 289° (WNW) 10:58:12 145.935
O/OREOS (USA 219) 19 Dec 10:52:39 10:57:07 62° 251° (WSW) 11:01:34 437.305
SPROUT 19 Dec 10:53:40 10:54:26 10° 89° (E) 10:55:12 437.525
TISAT 1 19 Dec 10:54:48 10:56:14 11° 90° (E) 10:57:40 437.305
TIGRISAT 19 Dec 10:55:04 10:57:55 17° 268° (W) 11:00:48 435.000
HO-68 19 Dec 10:57:55 11:02:35 19° 306° (NW) 11:07:15 435.675
AISAT 19 Dec 11:01:07 11:05:26 53° 288° (WNW) 11:09:45 437.250
DX 1 19 Dec 11:08:11 11:10:58 17° 296° (WNW) 11:13:44 434.975-435.025
CUBEBUG 1 19 Dec 11:12:38 11:16:59 78° 103° (ESE) 11:21:19 437.445
POPSAT HIP 1 19 Dec 11:13:42 11:16:08 15° 268° (W) 11:18:35 437.405
RS-15 19 Dec 11:16:52 11:27:17 53° 112° (ESE) 11:37:41 29.354- 29.394
50 SAT 19 Dec 11:24:53 11:28:33 31° 290° (WNW) 11:32:12 437.505
HUMSAT D 19 Dec 11:35:37 11:38:53 21° 293° (WNW) 11:42:10 437.325/437.525
YUBILEINY 19 Dec 11:42:51 11:51:17 58° 269° (W) 11:59:43 435.215
ESTCUBE 1 19 Dec 11:52:27 11:56:37 38° 290° (WNW) 12:00:46 437.505/2401.250
VELOX 1 19 Dec 11:56:36 11:59:16 16° 297° (WNW) 12:01:56 145.980
Oscar 19 19 Dec 12:22:29 12:27:35 70° 74° (ENE) 12:32:44 437.125/150
PCSat 19 Dec 12:22:33 12:24:25 12° 102° (ESE) 12:26:17 145.827
Gurwin Techsat 1B 19 Dec 12:23:28 12:26:59 18° 61° (ENE) 12:30:30 435.225
SPROUT 19 Dec 12:26:41 12:30:58 69° 285° (WNW) 12:35:14 437.525
TISAT 1 19 Dec 12:28:17 12:32:27 61° 286° (WNW) 12:36:37 437.305
ITUPSAT 1 19 Dec 12:34:27 12:38:08 22° 94° (E) 12:41:48 437.325
SWISSCUBE 19 Dec 12:34:27 12:38:19 24° 95° (E) 12:42:10 437.505
ITAMSAT 1 19 Dec 12:35:29 12:40:10 36° 68° (ENE) 12:44:52 435.822/435.867
BEESAT 3 19 Dec 12:38:01 12:41:13 22° 112° (ESE) 12:44:28 437.485
CUBEBUG 1 19 Dec 12:51:40 12:52:43 11° 299° (WNW) 12:53:46 437.445
BEESAT 19 Dec 12:59:20 13:03:49 39° 98° (E) 13:08:16 436.000
AUBIESAT-1 19 Dec 13:06:12 13:08:34 14° 94° (E) 13:10:49 437.475
AO-7 19 Dec 13:07:04 13:12:28 19° 49° (NE) 13:17:53 29.400- 29.500
ISS 19 Dec 13:09:10 13:11:45 21° 134° (SE) 13:14:21 145.825
BEESAT 2 19 Dec 13:15:38 13:19:36 50° 118° (ESE) 13:23:39 435.950
HORYU 2 19 Dec 13:19:19 13:22:34 20° 65° (ENE) 13:25:51 437.375
RS-15 19 Dec 13:29:13 13:39:42 50° 316° (NW) 13:50:21 29.354- 29.394
M-CUBED/EXP-1 PRIME 19 Dec 13:29:38 13:33:29 29° 100° (E) 13:37:02 437.505
Gurwin Techsat 1B 19 Dec 14:01:11 14:06:26 63° 259° (WSW) 14:11:43 435.225
PCSat 19 Dec 14:01:34 14:06:59 89° 119° (ESE) 14:12:26 145.827
Oscar 19 19 Dec 14:04:47 14:07:26 14° 270° (W) 14:10:06 437.125/150
ITUPSAT 1 19 Dec 14:11:43 14:16:10 40° 290° (WNW) 14:20:35 437.325
SWISSCUBE 19 Dec 14:11:54 14:16:15 36° 291° (WNW) 14:20:35 437.505
AIST 2 19 Dec 14:13:41 14:17:55 86° 302° (WNW) 14:22:15 435.215
ITAMSAT 1 19 Dec 14:15:15 14:19:41 28° 264° (W) 14:24:08 435.822/435.867
BEESAT 3 19 Dec 14:15:23 14:19:11 36° 310° (NW) 14:23:04 437.485
STARS 19 Dec 14:25:03 14:29:17 43° 99° (E) 14:33:31 437.465
KKS-1 19 Dec 14:25:37 14:30:04 66° 102° (ESE) 14:34:31 437.445
BEESAT 19 Dec 14:37:42 14:41:25 23° 295° (WNW) 14:45:07 436.000
AUBIESAT-1 19 Dec 14:39:38 14:43:55 51° 293° (WNW) 14:47:50 437.475
ISS 19 Dec 14:44:56 14:48:09 47° 331° (NNW) 14:51:21 145.825
JAS-2 19 Dec 14:47:25 14:53:27 27° 63° (ENE) 14:59:05 435.910
HORYU 2 19 Dec 14:54:44 14:58:57 41° 261° (W) 15:03:12 437.375
BEESAT 2 19 Dec 14:55:05 14:58:08 20° 317° (NW) 15:01:14 435.950
AO-7 19 Dec 14:55:40 15:03:58 79° 69° (ENE) 15:12:20 29.400- 29.500
M-CUBED/EXP-1 PRIME 19 Dec 15:04:40 15:08:24 27° 299° (WNW) 15:11:53 437.505
GONETS M04 19 Dec 15:41:02 15:49:03 38° 71° (ENE) 15:56:56
RS-15 19 Dec 15:47:25 15:55:37 23° 348° (NNW) 16:04:00 29.354- 29.394
PCSat 19 Dec 15:47:37 15:51:09 17° 319° (NW) 15:54:43 145.827
AIST 2 19 Dec 15:55:06 15:57:13 13° 322° (NW) 15:59:21 435.215
CUTE-I 19 Dec 15:55:42 15:58:53 16° 60° (ENE) 16:02:03 437.470
STARS 19 Dec 16:02:20 16:05:27 19° 295° (WNW) 16:08:34 437.465
KKS-1 19 Dec 16:04:01 16:06:10 13° 298° (WNW) 16:08:19 437.445
AIST 1 19 Dec 16:14:48 16:19:08 63° 95° (E) 16:23:28
ISS 19 Dec 16:23:03 16:25:19 17° 350° (N) 16:27:35 145.825
JAS-2 19 Dec 16:30:20 16:38:01 67° 258° (WSW) 16:45:04 435.910
AO-7 19 Dec 16:51:24 16:57:32 23° 268° (W) 17:03:45 29.400- 29.500
Cubesat XI-IV 19 Dec 16:59:28 17:04:41 58° 72° (ENE) 17:09:55 437.490
MOZHAYETS 4 19 Dec 17:02:10 17:06:49 83° 284° (WNW) 17:11:25
CUTE-I 19 Dec 17:33:01 17:38:20 73° 257° (WSW) 17:43:40 437.470
GONETS M04 19 Dec 17:37:45 17:46:02 49° 271° (W) 17:54:14
MaSat-1 19 Dec 17:40:02 17:41:59 21° 59° (ENE) 17:44:00 437.345
HO-68 19 Dec 17:53:58 17:57:38 15° 51° (NE) 18:01:18 435.675
AIST 1 19 Dec 17:55:34 17:57:15 12° 292° (WNW) 17:58:55
ISS 19 Dec 18:00:33 18:02:50 17° 11° (N) 18:05:07 145.825
STRAND 1 19 Dec 18:03:11 18:07:30 27° 95° (E) 18:11:48 437.568
RS-15 19 Dec 18:04:03 18:13:09 28° 24° (NNE) 18:22:30 29.354- 29.394
PRISM 19 Dec 18:13:30 18:17:41 86° 103° (ESE) 18:21:49 437.425
CUBESAT XI-V 19 Dec 18:21:47 18:26:16 49° 99° (E) 18:30:43 437.345
JAS-2 19 Dec 18:21:56 18:23:59 11° 274° (W) 18:26:00 435.910
Cubesat XI-IV 19 Dec 18:41:34 18:45:09 18° 268° (W) 18:48:44 437.490
SEEDS 19 Dec 18:44:26 18:45:44 11° 61° (ENE) 18:47:01 437.485
CUTE 1.7 + AOD 2 19 Dec 18:45:25 18:47:31 14° 63° (ENE) 18:49:38 437.475
CUSAT 1 19 Dec 18:48:39 18:54:20 22° 66° (ENE) 19:00:29 437.405
DOVE 4 19 Dec 19:05:48 19:07:23 12° 62° (ENE) 19:08:59 437.250
Oscar 11 19 Dec 19:19:13 19:20:00 10° 60° (ENE) 19:20:48 145.826/435.025
UKube-1 19 Dec 19:27:34 19:27:51 10° 60° (ENE) 19:28:09 .
DANDE 19 Dec 19:33:57 19:40:52 38° 72° (ENE) 19:48:43 436.750
ISS 19 Dec 19:36:47 19:40:00 50° 30° (NNE) 19:43:11 145.825
HO-68 19 Dec 19:36:59 19:44:06 71° 70° (ENE) 19:51:16 435.675
BRITE-PL 19 Dec 19:37:58 19:42:02 51° 73° (ENE) 19:46:03 437.365/2234.400
CINEMA 3 19 Dec 19:38:22 19:40:58 16° 64° (ENE) 19:43:37 145.822/145.860
AAUSAT CUBESAT 2 19 Dec 19:38:44 19:42:27 31° 70° (ENE) 19:46:11 437.432
STRAND 1 19 Dec 19:42:06 19:46:44 36° 292° (WNW) 19:51:20 437.568
CANX-2 19 Dec 19:47:42 19:51:56 68° 75° (ENE) 19:56:13 2200.000
CUBESAT XI-V 19 Dec 20:00:16 20:03:19 18° 296° (WNW) 20:06:22 437.345
UWE-3 19 Dec 20:09:14 20:12:10 19° 65° (ENE) 20:15:08 435.000/436.395/437.385
GOMX 1 19 Dec 20:10:05 20:14:14 83° 76° (ENE) 20:18:25 467.674
FUNcube-1 19 Dec 20:11:36 20:14:16 17° 64° (ENE) 20:16:59 145.935
COMPASS 1 19 Dec 20:12:40 20:16:53 86° 76° (ENE) 20:21:09 437.405
SEEDS 19 Dec 20:16:43 20:20:56 73° 258° (WSW) 20:25:13 437.485
RS-15 19 Dec 20:16:49 20:28:03 69° 52° (NE) 20:39:46 29.354- 29.394
CUTE 1.7 + AOD 2 19 Dec 20:18:45 20:22:56 59° 260° (W) 20:27:12 437.475
AISAT 19 Dec 20:25:14 20:27:47 15° 63° (ENE) 20:30:20 437.250
DX 1 19 Dec 20:26:59 20:31:06 44° 71° (ENE) 20:35:14 434.975-435.025
SO-50 19 Dec 20:28:33 20:32:32 31° 114° (ESE) 20:36:39 436.795
CUSAT 1 19 Dec 20:30:26 20:38:06 87° 262° (W) 20:46:39 437.405
DELFI C3 19 Dec 20:35:56 20:39:57 56° 74° (ENE) 20:44:01 145.870
50 SAT 19 Dec 20:39:54 20:42:18 16° 65° (ENE) 20:44:43 437.505
DOVE 4 19 Dec 20:40:33 20:44:38 61° 259° (W) 20:48:48 437.250
Oscar 11 19 Dec 20:51:10 20:55:30 81° 257° (WSW) 20:59:53 145.826/435.025
HUMSAT D 19 Dec 20:52:29 20:55:57 27° 68° (ENE) 20:59:28 437.325/437.525
BEESAT 3 19 Dec 20:57:01 21:00:08 20° 44° (NE) 21:03:13 437.485
AIST 2 19 Dec 20:58:46 21:00:18 12° 36° (NE) 21:01:50 435.215
UKube-1 19 Dec 20:59:00 21:03:20 85° 256° (WSW) 21:07:41 .
CUBEBUG 2 19 Dec 21:03:46 21:07:56 85° 77° (ENE) 21:12:14 437.445
PCSat 19 Dec 21:07:10 21:10:17 15° 39° (NE) 21:13:22 145.827
CINEMA 3 19 Dec 21:13:52 21:17:49 44° 262° (W) 21:21:53 145.822/145.860
ISS 19 Dec 21:13:53 21:16:21 20° 227° (SW) 21:18:48 145.825
AAUSAT CUBESAT 2 19 Dec 21:14:50 21:18:08 22° 266° (W) 21:21:29 437.432
ESTCUBE 1 19 Dec 21:16:46 21:20:10 21° 65° (ENE) 21:23:35 437.505/2401.250
VELOX 1 19 Dec 21:17:04 21:21:20 50° 72° (ENE) 21:25:37 145.980
DANDE 19 Dec 21:17:11 21:24:28 51° 267° (W) 21:32:43 436.750
ZACube-1 19 Dec 21:18:56 21:23:06 89° 257° (WSW) 21:27:23 437.345
BRITE-PL 19 Dec 21:19:06 21:20:54 13° 269° (W) 21:22:42 437.365/2234.400
HO-68 19 Dec 21:27:07 21:32:24 22° 268° (W) 21:37:43 435.675
CANX-2 19 Dec 21:27:29 21:28:20 11° 271° (W) 21:29:10 2200.000
BEESAT 2 19 Dec 21:35:26 21:39:22 37° 50° (NE) 21:43:15 435.950
UNISAT 6 19 Dec 21:37:22 21:40:49 20° 93° (E) 21:44:15 437.425
UWE-3 19 Dec 21:44:32 21:48:25 38° 262° (W) 21:52:25 435.000/436.395/437.385
FUNcube-1 19 Dec 21:46:17 21:50:16 44° 262° (W) 21:54:20 145.935
TISAT 1 19 Dec 21:49:30 21:50:05 10° 61° (ENE) 21:50:40 437.305
DUCHIFAT 1 19 Dec 21:50:48 21:53:22 16° 92° (E) 21:55:55 145.980
BUGSAT 1 19 Dec 21:55:20 21:57:14 13° 91° (E) 21:59:07 437.445
AISAT 19 Dec 21:59:38 22:03:57 55° 259° (W) 22:08:19 437.250
QB50P2 19 Dec 22:02:58 22:06:18 22° 94° (E) 22:09:36 145.880/145.840
DX 1 19 Dec 22:04:44 22:07:33 17° 267° (W) 22:10:23 434.975-435.025
ANTELSAT 19 Dec 22:08:26 22:12:54 41° 98° (E) 22:17:21 437.575/2403.000
SO-50 19 Dec 22:08:54 22:13:02 33° 313° (NW) 22:17:17 436.795
CUBEBUG 1 19 Dec 22:09:14 22:13:34 68° 75° (ENE) 22:17:55 437.445
POLYITAN 1 19 Dec 22:11:11 22:14:50 27° 96° (E) 22:18:28 437.675
50 SAT 19 Dec 22:13:20 22:17:10 44° 261° (W) 22:21:03 437.505
DELFI C3 19 Dec 22:13:59 22:15:35 12° 270° (W) 22:17:11 145.870
NANOSAT C BR1 19 Dec 22:14:17 22:17:59 28° 96° (E) 22:21:40 145.865
CUSAT 1 19 Dec 22:15:22 22:20:25 19° 277° (W) 22:25:47 437.405
QB50P1 19 Dec 22:28:16 22:32:18 40° 98° (E) 22:36:19 145.935-145.965
HUMSAT D 19 Dec 22:28:16 22:31:42 25° 265° (W) 22:35:11 437.325/437.525
RS-15 19 Dec 22:29:55 22:39:43 36° 254° (WSW) 22:49:55 29.354- 29.394
BEESAT 3 19 Dec 22:34:32 22:38:35 49° 242° (WSW) 22:42:34 437.485
AIST 2 19 Dec 22:35:26 22:39:44 70° 56° (NE) 22:43:58 435.215
TIGRISAT 19 Dec 22:44:27 22:49:10 87° 283° (WNW) 22:53:53 435.000
YUBILEINY 19 Dec 22:48:17 22:55:56 36° 85° (E) 23:03:32 435.215
PCSat 19 Dec 22:49:10 22:54:37 77° 59° (ENE) 23:00:02 145.827
ESTCUBE 1 19 Dec 22:52:32 22:56:47 39° 262° (W) 23:01:04 437.505/2401.250
VELOX 1 19 Dec 22:55:35 22:58:11 15° 268° (W) 23:00:48 145.980
POPSAT HIP 1 19 Dec 22:56:40 23:00:57 86° 103° (ESE) 23:05:14 437.405
UNISAT 6 19 Dec 23:13:18 23:17:46 44° 289° (WNW) 23:22:14 437.425
BEESAT 2 19 Dec 23:14:09 23:17:24 22° 248° (WSW) 23:20:37 435.950
TISAT 1 19 Dec 23:21:05 23:25:17 78° 257° (WSW) 23:29:30 437.305
SPROUT 19 Dec 23:21:11 23:25:27 86° 257° (WSW) 23:29:46 437.525
DUCHIFAT 1 19 Dec 23:25:23 23:29:27 46° 288° (WNW) 23:33:31 145.980
O/OREOS (USA 219) 19 Dec 23:28:24 23:30:41 14° 99° (E) 23:32:58 437.305
BUGSAT 1 19 Dec 23:29:05 23:33:00 49° 287° (WNW) 23:36:56 437.445
QB50P2 19 Dec 23:38:26 23:42:15 33° 290° (WNW) 23:46:05 145.880/145.840
SWISSCUBE 19 Dec 23:41:35 23:45:44 30° 67° (ENE) 23:49:54 437.505
ITUPSAT 1 19 Dec 23:41:47 23:45:50 28° 67° (ENE) 23:49:53 437.325
ANTELSAT 19 Dec 23:45:48 23:49:25 22° 294° (WNW) 23:53:02 437.575/2403.000
POLYITAN 1 19 Dec 23:47:05 23:50:42 27° 292° (WNW) 23:54:20 437.675
CUBEBUG 1 19 Dec 23:49:16 23:50:23 11° 270° (W) 23:51:31 437.445
NANOSAT C BR1 19 Dec 23:50:15 23:53:45 25° 292° (WNW) 23:57:16 145.865
AUBIESAT-1 19 Dec 23:54:12 23:58:12 26° 61° (ENE) 00:02:14 437.475
QB50P1 20 Dec 00:04:56 00:07:53 19° 295° (WNW) 00:10:51 145.935-145.965
BEESAT 20 Dec 00:06:14 00:10:50 48° 71° (ENE) 00:15:27 436.000
AIST 2 20 Dec 00:16:12 00:17:45 12° 252° (WSW) 00:19:18 435.215
M-CUBED/EXP-1 PRIME 20 Dec 00:18:21 00:22:58 47° 66° (ENE) 00:27:42 437.505
TIGRISAT 20 Dec 00:24:19 00:25:09 10° 301° (WNW) 00:26:00 435.000
Oscar 19 20 Dec 00:34:19 00:38:30 24° 94° (E) 00:42:40 437.125/150
PCSat 20 Dec 00:34:26 00:37:20 15° 257° (WSW) 00:40:13 145.827
YUBILEINY 20 Dec 00:43:57 00:52:23 51° 285° (WNW) 01:00:51 435.215
ITAMSAT 1 20 Dec 00:50:03 00:51:47 12° 89° (E) 00:53:31 435.822/435.867
